Hourly Weather Bolshie Gory

Today, 19 June, Saturday

Time Temperature Precipitation Wind Pressure Humidity
00:00 +15°C° 0 mm 4 mps 757 mmHg 70%
01:00 +15°C° 0 mm 4 mps 757 mmHg 70%
02:00 +15°C° 0 mm 4 mps 757 mmHg 70%
03:00 +17°C° 0 mm 4 mps 757 mmHg 69%
04:00 +17°C° 0 mm 3 mps 757 mmHg 68%
05:00 +18°C° 0 mm 3 mps 757 mmHg 66%
06:00 +19°C° 0 mm 3 mps 757 mmHg 62%
07:00 +21°C° 0 mm 4 mps 757 mmHg 57%
08:00 +22°C° 0 mm 4 mps 758 mmHg 52%
09:00 +23°C° 0 mm 4 mps 758 mmHg 50%
10:00 +25°C° 0 mm 4 mps 758 mmHg 48%
11:00 +26°C° 0 mm 4 mps 758 mmHg 45%
12:00 +27°C° 0 mm 4 mps 758 mmHg 43%
13:00 +27°C° 0 mm 4 mps 758 mmHg 41%
14:00 +28°C° 0 mm 3 mps 758 mmHg 40%
15:00 +27°C° 0 mm 3 mps 758 mmHg 40%
16:00 +27°C° 0 mm 3 mps 758 mmHg 39%
17:00 +27°C° 0 mm 3 mps 758 mmHg 39%
18:00 +25°C° 0 mm 2 mps 758 mmHg 47%
19:00 +23°C° 0 mm 2 mps 757 mmHg 55%
20:00 +21°C° 0 mm 2 mps 757 mmHg 63%
21:00 +19°C° 0 mm 2 mps 757 mmHg 66%
22:00 +18°C° 0 mm 2 mps 757 mmHg 69%
23:00 +17°C° 0 mm 2 mps 757 mmHg 72%

Tomorrow, 20 June, Sunday

Time Temperature Precipitation Wind Pressure Humidity
00:00 +16°C° 0 mm 2 mps 757 mmHg 73%
01:00 +16°C° 0 mm 2 mps 757 mmHg 74%
02:00 +16°C° 0 mm 2 mps 757 mmHg 76%
03:00 +17°C° 0 mm 2 mps 757 mmHg 74%
04:00 +18°C° 0 mm 2 mps 757 mmHg 73%
05:00 +19°C° 0 mm 2 mps 757 mmHg 71%
06:00 +20°C° 0 mm 2 mps 757 mmHg 66%
07:00 +23°C° 0 mm 2 mps 757 mmHg 62%
08:00 +24°C° 0 mm 3 mps 757 mmHg 57%
09:00 +25°C° 0 mm 3 mps 757 mmHg 54%
10:00 +27°C° 0 mm 3 mps 757 mmHg 50%
11:00 +28°C° 0 mm 3 mps 757 mmHg 46%
12:00 +28°C° 0 mm 3 mps 756 mmHg 45%
13:00 +29°C° 0 mm 4 mps 756 mmHg 44%
14:00 +29°C° 0 mm 4 mps 756 mmHg 42%
15:00 +29°C° 0 mm 4 mps 756 mmHg 43%
16:00 +29°C° 0 mm 4 mps 756 mmHg 44%
17:00 +29°C° 0 mm 3 mps 756 mmHg 44%
18:00 +27°C° 0 mm 3 mps 755 mmHg 52%
19:00 +25°C° 0 mm 2 mps 755 mmHg 60%
20:00 +23°C° 0 mm 1 mps 755 mmHg 68%
21:00 +21°C° 0 mm 2 mps 755 mmHg 70%
22:00 +20°C° 0 mm 2 mps 756 mmHg 72%
23:00 +19°C° 0 mm 2 mps 756 mmHg 73%

Day after tomorrow, 21 June, Monday

Time Temperature Precipitation Wind Pressure Humidity
00:00 +18°C° 0 mm 2 mps 756 mmHg 76%
01:00 +18°C° 0 mm 2 mps 756 mmHg 78%
02:00 +18°C° 0 mm 1 mps 756 mmHg 80%
03:00 +20°C° 0 mm 1 mps 756 mmHg 77%
04:00 +21°C° 0 mm 1 mps 756 mmHg 74%
05:00 +22°C° 0 mm 1 mps 756 mmHg 72%
06:00 +24°C° 0 mm 2 mps 756 mmHg 65%
07:00 +26°C° 0 mm 2 mps 757 mmHg 59%
08:00 +27°C° 0 mm 3 mps 757 mmHg 53%
09:00 +28°C° 0 mm 3 mps 757 mmHg 51%
10:00 +29°C° 0 mm 3 mps 757 mmHg 49%
11:00 +30°C° 0 mm 4 mps 757 mmHg 47%
12:00 +30°C° 0 mm 4 mps 757 mmHg 45%
13:00 +32°C° 0 mm 4 mps 756 mmHg 44%
14:00 +33°C° 0 mm 4 mps 756 mmHg 42%
15:00 +33°C° 0 mm 4 mps 756 mmHg 41%
16:00 +33°C° 0 mm 4 mps 756 mmHg 40%
17:00 +33°C° 0 mm 4 mps 755 mmHg 39%
18:00 +30°C° 0.1 mm 3 mps 755 mmHg 47%
19:00 +28°C° 0.1 mm 3 mps 755 mmHg 54%
20:00 +26°C° 0.1 mm 2 mps 755 mmHg 61%
21:00 +24°C° 0.1 mm 2 mps 756 mmHg 66%
22:00 +23°C° 0.1 mm 1 mps 756 mmHg 71%
23:00 +21°C° 0.1 mm 1 mps 756 mmHg 77%

22 June, Tuesday

Time Temperature Precipitation Wind Pressure Humidity
00:00 +21°C° 0.1 mm 1 mps 756 mmHg 79%
01:00 +21°C° 0.1 mm 1 mps 756 mmHg 80%
02:00 +19°C° 0.1 mm 2 mps 757 mmHg 82%
03:00 +20°C° 0 mm 2 mps 757 mmHg 82%
04:00 +20°C° 0 mm 2 mps 757 mmHg 81%
05:00 +21°C° 0 mm 2 mps 757 mmHg 80%
06:00 +24°C° 0 mm 2 mps 757 mmHg 73%
07:00 +25°C° 0 mm 2 mps 757 mmHg 66%
08:00 +27°C° 0 mm 3 mps 757 mmHg 60%
09:00 +29°C° 0 mm 3 mps 757 mmHg 55%
10:00 +30°C° 0 mm 3 mps 757 mmHg 50%
11:00 +31°C° 0 mm 3 mps 757 mmHg 45%
12:00 +31°C° 0 mm 3 mps 757 mmHg 43%
13:00 +33°C° 0 mm 3 mps 757 mmHg 40%
14:00 +33°C° 0 mm 3 mps 757 mmHg 38%
15:00 +33°C° 0 mm 3 mps 756 mmHg 37%
16:00 +33°C° 0 mm 3 mps 756 mmHg 36%
17:00 +33°C° 0 mm 3 mps 756 mmHg 35%
18:00 +30°C° 0 mm 3 mps 756 mmHg 42%
19:00 +28°C° 0 mm 3 mps 755 mmHg 48%
20:00 +27°C° 0 mm 3 mps 755 mmHg 55%
21:00 +25°C° 0.3 mm 2 mps 755 mmHg 64%
22:00 +23°C° 0.3 mm 2 mps 755 mmHg 73%
23:00 +21°C° 0.3 mm 2 mps 756 mmHg 82%

23 June, Wednesday

Time Temperature Precipitation Wind Pressure Humidity
00:00 +20°C° 0.1 mm 2 mps 756 mmHg 83%
01:00 +20°C° 0.1 mm 2 mps 756 mmHg 84%
02:00 +20°C° 0.1 mm 2 mps 756 mmHg 85%
03:00 +20°C° 0.1 mm 2 mps 756 mmHg 84%
04:00 +20°C° 0.1 mm 2 mps 756 mmHg 84%
05:00 +21°C° 0.1 mm 2 mps 756 mmHg 84%
06:00 +23°C° 0.1 mm 2 mps 756 mmHg 76%
07:00 +25°C° 0.1 mm 3 mps 756 mmHg 69%
08:00 +26°C° 0.1 mm 3 mps 756 mmHg 62%
09:00 +28°C° 0 mm 3 mps 756 mmHg 59%
10:00 +29°C° 0 mm 3 mps 756 mmHg 56%
11:00 +30°C° 0 mm 3 mps 757 mmHg 53%
12:00 +31°C° 0.1 mm 3 mps 757 mmHg 50%
13:00 +31°C° 0.1 mm 3 mps 757 mmHg 48%
14:00 +33°C° 0.1 mm 3 mps 757 mmHg 45%
15:00 +33°C° 0 mm 4 mps 757 mmHg 45%
16:00 +33°C° 0 mm 4 mps 757 mmHg 46%
17:00 +33°C° 0 mm 5 mps 757 mmHg 46%
18:00 +29°C° 0.1 mm 4 mps 756 mmHg 55%
19:00 +27°C° 0.1 mm 3 mps 756 mmHg 64%
20:00 +24°C° 0.1 mm 2 mps 756 mmHg 74%
21:00 +23°C° 1.5 mm 2 mps 756 mmHg 81%
22:00 +21°C° 1.5 mm 2 mps 757 mmHg 88%
23:00 +20°C° 1.5 mm 1 mps 757 mmHg 95%

24 June, Thursday

Time Temperature Precipitation Wind Pressure Humidity
00:00 +20°C° 0.6 mm 1 mps 757 mmHg 94%
01:00 +20°C° 0.6 mm 1 mps 757 mmHg 94%
02:00 +20°C° 0.6 mm 1 mps 756 mmHg 93%
03:00 +21°C° 0 mm 1 mps 757 mmHg 93%
04:00 +21°C° 0 mm 1 mps 757 mmHg 93%
05:00 +21°C° 0 mm 1 mps 757 mmHg 93%
06:00 +22°C° 0.3 mm 1 mps 757 mmHg 91%
07:00 +22°C° 0.3 mm 1 mps 757 mmHg 89%
08:00 +22°C° 0.3 mm 1 mps 757 mmHg 87%
09:00 +24°C° 0 mm 2 mps 757 mmHg 78%
10:00 +26°C° 0 mm 2 mps 757 mmHg 69%
11:00 +28°C° 0 mm 2 mps 757 mmHg 59%
12:00 +28°C° 0 mm 2 mps 757 mmHg 56%
13:00 +29°C° 0 mm 2 mps 757 mmHg 54%
14:00 +29°C° 0 mm 3 mps 757 mmHg 51%
15:00 +29°C° 0.2 mm 3 mps 757 mmHg 52%
16:00 +29°C° 0.2 mm 4 mps 757 mmHg 52%
17:00 +29°C° 0.2 mm 4 mps 757 mmHg 53%
18:00 +26°C° 0.1 mm 3 mps 756 mmHg 64%
19:00 +24°C° 0.1 mm 2 mps 756 mmHg 74%
20:00 +22°C° 0.1 mm 1 mps 755 mmHg 85%
21:00 +20°C° 0 mm 2 mps 755 mmHg 86%
22:00 +19°C° 0 mm 2 mps 756 mmHg 88%
23:00 +19°C° 0 mm 3 mps 756 mmHg 90%
Show more